PA3DZX-13 Weather Reports


time (UTC)temp
C
wind
direction
speed
KPH
gust
KPH
rain 1hr
cm
rain 24hr
cm
rain mn
cm
humidity
%
barometer
mb
20260902002312 10 123 0.0 0.0 0.00 0.00 0.00 95 1020.0
20260902000812 10 122 0.0 0.0 0.00 0.00 0.00 97 1020.0
20260901235310 10 331 0.0 0.0 0.00 0.00 0.00 95 1020.2
20260901233811 10 330 0.0 0.0 0.00 0.00 0.00 98 1020.2
20260901232310 10 331 0.0 0.0 0.00 0.00 0.00 96 1020.1
20260901230810 8 87 0.0 3.2 0.00 0.00 0.00 96 1020.1
20260901225309 10 127 3.2 3.2 0.00 0.00 0.00 95 1020.5
20260901223810 10 129 0.0 0.0 0.00 0.00 0.00 96 1020.7
20260901222309 10 127 0.0 0.0 0.00 0.00 0.00 99 1020.7
20260901220808 8 128 0.0 3.2 0.00 0.00 0.00 96 1020.8
20260901215308 10 128 0.0 0.0 0.00 0.00 0.00 95 1020.9
20260901213809 10 128 0.0 0.0 0.00 0.00 0.00 96 1020.8
20260901212309 10 128 0.0 0.0 0.00 0.00 0.00 95 1020.6
20260901210808 10 129 0.0 0.0 0.00 0.00 0.00 96 1020.7
20260901205308 10 128 0.0 0.0 0.00 0.00 0.00 95 1020.5
20260901203807 11 128 0.0 3.2 0.00 0.00 0.00 96 1020.4
20260901202306 10 123 0.0 0.0 0.00 0.00 0.00 94 1020.4
20260901200805 11 112 0.0 3.2 0.00 0.00 0.00 96 1020.3
20260901195306 11 127 0.0 3.2 0.00 0.00 0.00 92 1020.2
20260901193804 11 152 0.0 0.0 0.00 0.00 0.00 89 1020.3
20260901192301 13 157 0.0 0.0 0.00 0.00 0.00 85 1020.4
20260901190800 13 169 0.0 3.2 0.00 0.00 0.00 84 1020.4
20260901185259 13 328 0.0 3.2 0.00 0.00 0.00 81 1020.3
20260901183759 15 310 3.2 6.4 0.00 0.00 0.00 71 1020.2
20260901182258 17 306 6.4 9.7 0.00 0.00 0.00 66 1020.1
20260901180758 17 304 6.4 12.9 0.00 0.00 0.00 64 1020.1
20260901175258 18 298 6.4 12.9 0.00 0.00 0.00 61 1020.0
20260901173758 18 308 9.7 12.9 0.00 0.00 0.00 60 1019.9
20260901172257 18 312 9.7 17.7 0.00 0.00 0.00 57 1019.8
20260901170757 18 317 6.4 17.7 0.00 0.00 0.00 58 1019.8
20260901165256 18 293 12.9 20.9 0.00 0.00 0.00 56 1019.7
20260901163756 20 290 12.9 20.9 0.00 0.00 0.00 51 1019.6
20260901162255 20 270 12.9 20.9 0.00 0.00 0.00 53 1019.5
20260901160754 20 282 12.9 24.1 0.00 0.00 0.00 52 1019.5
20260901155253 20 293 9.7 17.7 0.00 0.00 0.00 49 1019.5
20260901153752 20 298 9.7 24.1 0.00 0.00 0.00 50 1019.4
20260901152252 20 267 12.9 27.4 0.00 0.00 0.00 47 1019.3
20260901150752 20 260 20.9 27.4 0.00 0.00 0.00 48 1019.3
20260901145251 20 263 17.7 27.4 0.00 0.00 0.00 47 1019.3
20260901143751 20 266 17.7 24.1 0.00 0.00 0.00 50 1019.3
20260901142250 20 282 12.9 27.4 0.00 0.00 0.00 49 1019.3
20260901140749 20 277 12.9 27.4 0.00 0.00 0.00 50 1019.2
20260901135248 21 281 17.7 27.4 0.00 0.00 0.00 50 1019.2
20260901133748 20 293 17.7 27.4 0.00 0.00 0.00 49 1019.1
20260901132247 20 279 17.7 35.4 0.00 0.00 0.00 53 1019.0
20260901130747 20 295 20.9 35.4 0.00 0.00 0.00 54 1019.1
20260901125246 20 275 17.7 27.4 0.00 0.00 0.00 54 1019.1
20260901123747 20 289 17.7 27.4 0.00 0.00 0.00 54 1019.1
20260901122245 20 286 12.9 27.4 0.00 0.00 0.00 55 1018.9
20260901120745 20 268 17.7 32.2 0.00 0.00 0.00 60 1018.9
20260901115244 20 278 17.7 27.4 0.00 0.00 0.00 58 1018.8
20260901113745 20 267 9.7 24.1 0.00 0.00 0.00 67 1018.8
20260901112244 18 237 12.9 27.4 0.00 0.00 0.00 72 1018.8
20260901110743 18 225 9.7 12.9 0.00 0.00 0.00 79 1018.9
20260901105243 17 241 12.9 20.9 0.00 0.00 0.00 82 1019.0
20260901103742 17 228 12.9 20.9 0.00 0.00 0.00 83 1019.0
20260901102242 17 206 9.7 20.9 0.00 0.00 0.00 86 1019.0
20260901100742 16 208 9.7 17.7 0.00 0.00 0.00 87 1019.0
20260901095241 16 212 12.9 17.7 0.00 0.00 0.00 86 1019.0
20260901093741 17 229 9.7 17.7 0.00 0.00 0.00 86 1018.9
20260901092240 16 227 9.7 17.7 0.00 0.00 0.00 87 1018.9
20260901090740 16 224 9.7 17.7 0.00 0.00 0.00 87 1018.7
20260901085239 16 219 9.7 17.7 0.00 0.00 0.00 88 1018.6
20260901083739 16 224 9.7 20.9 0.00 0.00 0.00 87 1018.5
20260901082238 16 224 9.7 20.9 0.00 0.00 0.00 87 1018.5
20260901080738 16 221 9.7 17.7 0.00 0.00 0.00 87 1018.3
20260901075238 16 226 9.7 17.7 0.00 0.00 0.00 86 1018.1
20260901073738 16 218 9.7 17.7 0.00 0.00 0.00 86 1018.0
20260901072237 15 223 9.7 17.7 0.00 0.00 0.00 88 1017.9
20260901070737 15 224 9.7 17.7 0.00 0.00 0.00 89 1017.9
20260901065236 15 216 6.4 12.9 0.00 0.00 0.00 91 1017.7
20260901063737 15 222 6.4 12.9 0.00 0.00 0.00 91 1017.7
20260901062236 15 214 9.7 12.9 0.00 0.00 0.00 93 1017.5
20260901060736 13 212 6.4 12.9 0.00 0.00 0.00 93 1017.5
20260901055235 13 214 6.4 12.9 0.00 0.00 0.00 93 1017.5
20260901053735 13 226 6.4 9.7 0.00 0.00 0.00 94 1017.1
20260901052234 13 226 6.4 9.7 0.00 0.00 0.00 94 1017.1
20260901050734 13 221 6.4 12.9 0.00 0.00 0.00 94 1017.0
20260901045234 13 226 6.4 9.7 0.00 0.00 0.00 94 1016.8
20260901043734 13 227 6.4 12.9 0.00 0.00 0.00 94 1016.8
20260901042233 13 227 6.4 12.9 0.00 0.00 0.00 94 1016.6
20260901040733 13 228 9.7 12.9 0.00 0.00 0.00 93 1016.7
20260901035230 13 225 9.7 12.9 0.00 0.00 0.00 93 1016.6
20260901033730 13 214 6.4 12.9 0.00 0.00 0.00 92 1016.4
20260901032229 13 217 6.4 12.9 0.00 0.00 0.00 92 1016.3
20260901030729 15 221 6.4 12.9 0.00 0.00 0.00 91 1016.3
20260901025228 13 226 6.4 12.9 0.00 0.00 0.00 91 1016.3
20260901023729 13 226 6.4 12.9 0.00 0.00 0.00 91 1016.3
20260901022228 15 220 9.7 17.7 0.00 0.00 0.00 90 1016.3
20260901020728 15 228 9.7 17.7 0.00 0.00 0.00 89 1016.2
20260901015226 15 220 9.7 17.7 0.00 0.00 0.00 89 1016.1
20260901013726 15 221 9.7 17.7 0.00 0.00 0.00 89 1016.2
20260901012224 15 225 9.7 17.7 0.00 0.00 0.00 89 1016.0
20260901010724 15 220 9.7 12.9 0.00 0.00 0.00 88 1015.9
20260901005224 15 218 9.7 17.7 0.00 0.00 0.00 88 1015.9
20260901003725 15 220 9.7 12.9 0.00 0.00 0.00 88 1015.8